Weather History for Parsons, KS

Change the Weather History Date:

Friday, April 26, 2013

  Actual Average Record
Temperature  
Mean Temperature 55 °F -  
Max Temperature 62 °F 71 °F 87 °F (1956)
Min Temperature 48 °F 49 °F 32 °F (1976)
Degree Days  
Heating Degree Days 10    
Growing Degree Days 5 (Base 50)    
Moisture  
Dew Point 46 °F    
Average Humidity 83    
Maximum Humidity 93    
Minimum Humidity 34    
Precipitation  
Precipitation 0.49 in - - ()
Sea Level Pressure  
Sea Level Pressure 30.17 in    
Wind  
Wind Speed 7 mph (ESE)    
Max Wind Speed 13 mph    
Max Gust Speed 23 mph    
Visibility 6 miles    
Events Rain , Thunderstorm    
Averages and records for this station are not official NWS values.
T = Trace of Precipitation, MM = Missing Value Source: NWS Daily Summary

Daily Weather History Graph

Daily Weather History Graph

Search for Another Location

Airport:

Trip Planner

Search our weather history database for the weather conditions in past years. The results will help you decide how hot, cold, wet, or windy it might be!

Date:

Astronomy

Apr. 26, 2013 Rise Set
Actual Time 6:32 AM CDT 8:07 PM CDT
Civil Twilight 6:05 AM CDT 8:35 PM CDT
Nautical Twilight 5:31 AM CDT 9:08 PM CDT
Astronomical Twilight 4:56 AM CDT 9:43 PM CDT
Moon 9:29 PM CDT (4/26) 7:02 AM CDT (4/26)
Length of Visible Light 14h 30m
Length of Day
13h 34m
Full, 99% of the Moon is Illuminated
Apr 26
Full
May 2
Last Quarter
May 9
New
May 17
First Quarter
May 24
Full

Hourly Weather History & Observations

Time (CDT) Temp. Dew Point Humidity Pressure Visibility Wind Dir Wind Speed Gust Speed Precip Events Conditions
12:52 AM 62.1 °F 33.1 °F 34% 30.14 in 10.0 mi South 12.7 mph 20.7 mph N/A   Clear
1:52 AM 61.0 °F 36.0 °F 39% 30.14 in 10.0 mi South 11.5 mph 23.0 mph N/A   Scattered Clouds
2:32 AM 57.2 °F 39.2 °F 51% 30.16 in 9.0 mi South 5.8 mph - 0.01 in Rain , Thunderstorm Light Thunderstorms and Rain
2:52 AM 55.9 °F 41.0 °F 57% 30.15 in 10.0 mi SSE 4.6 mph - 0.01 in   Overcast
3:03 AM 55.4 °F 41.0 °F 58% 30.16 in 10.0 mi South 3.5 mph - 0.00 in Rain , Thunderstorm Light Rain
3:52 AM 54.0 °F 44.1 °F 69% 30.15 in 7.0 mi SSE 8.1 mph - 0.02 in Rain , Thunderstorm Rain
4:33 AM 53.6 °F 44.6 °F 72% 30.15 in 10.0 mi SE 6.9 mph - 0.04 in   Overcast
4:52 AM 53.1 °F 44.1 °F 71% 30.14 in 10.0 mi ESE 6.9 mph - 0.04 in   Mostly Cloudy
5:40 AM 51.8 °F 44.6 °F 76% 30.20 in 10.0 mi North 6.9 mph - 0.00 in Thunderstorm Mostly Cloudy
5:52 AM 52.0 °F 45.0 °F 77% 30.24 in 9.0 mi North 5.8 mph - 0.00 in Rain , Thunderstorm Light Thunderstorms and Rain
6:37 AM 51.8 °F 46.4 °F 82% 30.21 in 7.0 mi Variable 6.9 mph - 0.11 in Rain Light Rain
6:52 AM 50.0 °F 46.9 °F 89% 30.21 in 10.0 mi ENE 4.6 mph - 0.11 in Rain Light Rain
7:16 AM 51.8 °F 46.4 °F 82% 30.21 in 10.0 mi Variable 5.8 mph - 0.00 in Rain , Thunderstorm Light Rain
7:39 AM 51.8 °F 46.4 °F 82% 30.21 in 6.0 mi Variable 4.6 mph - 0.00 in Rain , Thunderstorm Light Rain
7:52 AM 51.1 °F 46.0 °F 83% 30.21 in 8.0 mi ESE 5.8 mph - 0.00 in Rain , Thunderstorm Light Rain
8:52 AM 50.0 °F 45.0 °F 83% 30.25 in 6.0 mi ENE 5.8 mph - 0.02 in Rain , Thunderstorm Thunderstorms and Rain
9:52 AM 48.9 °F 45.0 °F 86% 30.25 in 4.0 mi ESE 9.2 mph - 0.07 in Rain Rain
10:17 AM 48.2 °F 44.6 °F 87% 30.23 in 5.0 mi ESE 9.2 mph - 0.01 in Rain , Thunderstorm Thunderstorms and Rain
10:30 AM 48.2 °F 44.6 °F 87% 30.24 in 2.5 mi Variable 5.8 mph - 0.05 in Rain , Thunderstorm Heavy Rain
10:37 AM 48.2 °F 44.6 °F 87% 30.25 in 8.0 mi SE 5.8 mph 18.4 mph 0.05 in Rain , Thunderstorm Light Thunderstorms and Rain
10:50 AM 48.2 °F 44.6 °F 87% 30.24 in 2.0 mi ESE 6.9 mph - 0.13 in Rain , Thunderstorm Thunderstorms and Rain
10:52 AM 48.9 °F 45.0 °F 86% 30.24 in 3.0 mi ESE 6.9 mph - 0.13 in Rain , Thunderstorm Light Thunderstorms and Rain
11:09 AM 50.0 °F 46.4 °F 87% 30.23 in 10.0 mi SE 9.2 mph - 0.00 in Rain , Thunderstorm Light Rain
11:27 AM 48.2 °F 46.4 °F 93% 30.23 in 1.8 mi SE 11.5 mph 20.7 mph 0.09 in Rain , Thunderstorm Heavy Thunderstorms and Rain
11:37 AM 50.0 °F 46.4 °F 87% 30.22 in 3.0 mi SE 10.4 mph 18.4 mph 0.09 in Rain , Thunderstorm Light Thunderstorms and Rain
11:52 AM 50.0 °F 46.9 °F 89% 30.21 in 10.0 mi SE 10.4 mph 19.6 mph 0.09 in   Overcast
12:52 PM 52.0 °F 46.9 °F 83% 30.17 in 10.0 mi SE 12.7 mph 19.6 mph 0.00 in   Overcast
1:49 PM 51.8 °F 46.4 °F 82% 30.15 in 7.0 mi SE 10.4 mph 20.7 mph 0.00 in Rain , Thunderstorm Light Rain
1:52 PM 51.1 °F 46.9 °F 86% 30.15 in 8.0 mi SSE 10.4 mph 20.7 mph 0.00 in Rain , Thunderstorm Rain
2:16 PM 51.8 °F 48.2 °F 88% 30.17 in 10.0 mi SE 8.1 mph - 0.00 in   Overcast
2:52 PM 53.1 °F 48.0 °F 83% 30.17 in 10.0 mi Variable 4.6 mph - 0.00 in   Overcast
3:52 PM 52.0 °F 48.0 °F 86% 30.15 in 3.0 mi ESE 6.9 mph - 0.00 in Rain Light Rain
4:00 PM 51.8 °F 48.2 °F 88% 30.15 in 2.5 mi ESE 5.8 mph - 0.00 in Rain Light Rain
4:07 PM 51.8 °F 48.2 °F 88% 30.15 in 3.0 mi Variable 5.8 mph - 0.00 in Rain Light Rain
4:15 PM 51.8 °F 48.2 °F 88% 30.14 in 3.0 mi Variable 4.6 mph - 0.00 in Rain Light Rain
4:37 PM 51.8 °F 48.2 °F 88% 30.14 in 4.0 mi East 4.6 mph - 0.00 in Rain Light Rain
4:48 PM 51.8 °F 48.2 °F 88% 30.13 in 2.0 mi Variable 3.5 mph - 0.00 in Rain Light Rain
4:49 PM 52.0 °F 48.9 °F 89% 30.13 in 2.0 mi Variable 3.5 mph - 0.00 in Rain Light Rain
5:00 PM 51.8 °F 48.2 °F 88% 30.13 in 2.5 mi ESE 4.6 mph - 0.00 in Rain Light Rain
5:37 PM 51.8 °F 48.2 °F 88% 30.13 in 1.8 mi Calm Calm - 0.00 in Rain Light Rain
5:40 PM 51.8 °F 48.2 °F 88% 30.13 in 2.0 mi Variable 4.6 mph - 0.00 in Rain Light Rain
5:52 PM 51.1 °F 48.9 °F 92% 30.13 in 2.5 mi East 3.5 mph - 0.00 in Rain Light Rain
6:52 PM 51.1 °F 48.9 °F 92% 30.14 in 2.5 mi Variable 3.5 mph - 0.00 in Rain Light Rain
7:02 PM 51.8 °F 48.2 °F 88% 30.13 in 3.0 mi Variable 3.5 mph - 0.00 in Rain Light Rain
7:17 PM 51.8 °F 48.2 °F 88% 30.14 in 4.0 mi Calm Calm - 0.00 in Rain Light Rain
7:37 PM 51.8 °F 48.2 °F 88% 30.14 in 4.0 mi ENE 3.5 mph - 0.00 in Rain Light Rain
7:50 PM 51.8 °F 48.2 °F 88% 30.14 in 2.5 mi Calm Calm - 0.00 in Rain Light Rain
7:52 PM 51.1 °F 48.9 °F 92% 30.14 in 2.0 mi East 4.6 mph - 0.00 in Rain Light Rain
8:17 PM 51.8 °F 48.2 °F 88% 30.13 in 4.0 mi North - - 0.00 in   Overcast
8:27 PM 51.8 °F 48.2 °F 88% 30.13 in 4.0 mi East 3.5 mph - 0.00 in   Overcast
8:52 PM 51.1 °F 48.9 °F 92% 30.14 in 8.0 mi Calm Calm - 0.00 in   Overcast
9:11 PM 51.8 °F 48.2 °F 88% 30.15 in 2.5 mi ENE 3.5 mph - 0.00 in Rain Light Rain
9:19 PM 51.8 °F 48.2 °F 88% 30.15 in 3.0 mi ENE 3.5 mph - 0.00 in Rain Light Rain
9:52 PM 51.1 °F 48.0 °F 89% 30.15 in 9.0 mi East 5.8 mph - 0.00 in   Overcast
10:52 PM 51.1 °F 48.0 °F 89% 30.15 in 10.0 mi ENE 4.6 mph - N/A   Overcast
11:52 PM 51.1 °F 48.0 °F 89% 30.14 in 7.0 mi Variable 4.6 mph - N/A   Overcast